星链-3290 (STARLINK-3290 )

导读 | 星芒AI

STARLINK-3290 是 SpaceX Starlink 项目中的一颗低轨通信卫星,属于第三代星链卫星(v1.5 或 v2 版本)。它运行在约 550 公里的轨道高度,旨在为全球用户提供高速互联网服务。该卫星采用先进的推进系统和激光通信技术,以提高网络效率和减少延迟。作为 Starlink 卫星群的一部分,STARLINK-3290 有助于扩大覆盖范围,特别是在偏远和网络基础设施薄弱的地区。

基本信息
目录编号:
50828
目录名称:
STARLINK-3290
国际标识:
2022-001AB
轨道中心:
EARTH
卫星名称:
星链-3290
卫星全名:
星链-3290 (STARLINK-3290 )
卫星状态:
在轨 (已飞行1444 天)
发射日期:
2022-01-06 UTC
国别 :
美国 (US)
星等 :
--
轨道信息
数据来源 国际轨道数据 AOE轨道数据
星历时间 2025-12-19T19:04:07+0800
1天前
查看轨道信息
2025-12-16T13:00:00+0800
4天前
查看轨道信息
半长轴 6917.876km 6917.863km
偏心率 0.0001494 0.0001712
轨道倾角 53.216° 53.217°
近地点辐角 90.676° 75.870°
升交点赤经 169.171° 183.773°
平近点角 269.440° 245.664°
近地点 538.705km 538.543km
远地点 540.773km 540.913km
周期 95.437分钟 95.437分钟
每日圈数 15.088416 15.088458
详细信息
固有亮度:
5
最大亮度:
2.5
卫星平台:
Starlink v1.5
覆盖范围:
全球
运营商:
太空探索技术公司
运营商所在国:
美国
制造商(研发单位):
太空探索技术公司
制造商所在国:
美国
使用方式:
暂无
卫星简介
星链(Starlink)计划是由太空探索技术公司(SpaceX)提出的一个巨型低轨卫星互联网星座项目,计划在2019年至2024年间在太空搭建由约1.2万颗卫星组成的“星链”网络,其中1584颗将部署在地球上空550千米处的近地轨道,并从2020年开始工作。该卫星仍在工作。
2D轨道图
3D轨道图
轨道高度分析图
轨道倾角分析图
轨道综合分析图
查看轨道综合分析图